Wind_Speed
5 4 4 4 6 6 5 7 9 10 10 7 4 3 1 3 2 2 6 4 1 5 3 2 3 1 2 1 1 0 1 1 0 1 1 0 0 1 0 2 1 1 1 1 2 2 2 3 3 3 3 2 1 1 2 1 1 3 1 2 1 2 2 0 4 5 3 3 3 2 1 2 1 2 2 4 3 3 5 5 3 2 3 2 2 4 10
5 5 4 5 5 6 6 7 8 9 9 8 5 1 2 2 2 1 5 5 1 3 1 1 1 2 2 2 1 1 1 2 1 1 2 1 2 1 1 2 0 0 1 2 2 3 1 2 2 1 2 2 1 2 2 1 1 1 2 2 0 1 1 1 3 6 6 6 5 4 3 0 3 4 2 3 4 6 3 2 2 1 5 7 4 7 10
5 5 5 5 5 6 5 6 7 8 9 9 6 2 2 1 1 2 4 5 4 2 3 4 3 1 0 1 2 1 0 1 2 2 2 1 2 1 1 1 1 1 2 2 0 1 1 2 1 1 1 3 2 2 2 1 1 2 2 0 0 2 2 2 1 3 4 5 5 3 3 1 2 2 3 4 5 7 3 1 3 3 5 6 6 9 11
6 6 6 6 5 5 5 5 6 6 8 9 6 3 2 1 0 2 5 5 6 2 1 4 4 3 3 0 1 1 1 1 1 1 2 1 2 1 1 0 1 2 1 0 2 2 1 0 1 1 3 3 2 0 0 1 1 2 1 2 2 1 1 3 5 6 7 8 7 2 2 1 5 5 5 6 5 6 5 3 3 5 2 3 9 12 14
7 7 7 6 6 6 5 5 5 5 7 8 6 4 3 1 1 0 1 3 3 4 3 4 3 2 3 1 1 1 1 2 1 0 1 0 1 1 0 1 2 2 2 1 2 2 0 1 1 3 3 3 2 1 1 1 1 2 0 1 3 3 3 5 7 9 12 12 10 2 1 5 9 10 7 7 7 6 7 7 8 4 3 8 12 8 8
8 8 7 7 6 7 6 5 5 4 6 6 4 3 2 0 1 2 1 1 0 2 2 2 4 2 1 1 1 1 1 1 1 1 1 2 0 1 0 2 5 6 5 3 1 1 1 1 3 2 2 2 2 2 0 1 2 2 1 2 3 4 3 4 4 8 12 12 11 7 5 7 9 11 10 7 8 10 12 16 12 7 5 14 14 6 8
9 8 8 8 7 7 7 7 5 3 5 6 3 1 1 1 1 0 2 0 2 1 1 2 5 3 1 1 1 2 3 4 4 2 2 2 2 1 2 6 6 6 5 3 2 3 2 2 4 2 2 2 0 1 2 1 2 2 2 1 1 4 3 3 2 6 11 12 10 7 5 7 8 11 11 9 10 14 15 17 13 8 11 18 18 17 17
9 9 9 9 8 8 8 8 7 4 4 5 1 1 1 0 2 1 2 2 1 1 2 3 4 2 1 0 2 2 5 5 4 2 3 1 2 2 4 7 5 4 5 5 4 7 6 3 4 4 3 2 3 3 3 2 2 2 2 0 1 1 3 1 3 4 9 7 6 3 4 6 9 14 12 8 10 11 12 12 9 6 11 17 16 15 16
10 10 9 9 8 9 9 9 8 5 4 4 1 1 1 1 2 2 4 2 1 1 2 2 3 0 1 2 2 1 4 6 4 2 2 3 4 6 7 5 1 2 4 6 8 8 7 5 6 6 5 3 3 2 2 4 4 1 1 0 0 1 2 2 5 4 6 3 6 6 7 7 10 14 11 4 7 7 7 7 6 7 9 11 9 8 10
9 9 9 9 8 9 9 10 9 7 5 3 0 1 2 2 1 2 4 1 2 1 1 2 1 2 2 3 2 1 2 4 3 1 1 2 2 5 7 5 2 2 3 8 9 6 5 6 5 4 3 1 2 1 1 5 6 4 4 1 1 3 1 2 3 2 6 4 5 7 8 7 7 7 3 4 6 5 4 5 7 9 7 4 5 6 9
9 9 10 10 10 10 10 10 10 9 8 6 3 2 3 4 1 3 5 1 3 1 1 1 1 2 2 1 1 0 1 1 2 2 2 1 1 0 4 5 2 2 4 6 5 3 3 3 1 3 4 5 5 4 5 6 4 3 5 3 1 3 3 1 1 1 6 7 8 7 4 3 5 3 4 4 5 6 6 7 10 9 7 5 7 8 11
10 10 10 10 11 11 12 12 12 11 11 10 7 5 5 4 2 3 5 1 3 1 1 3 4 2 1 1 1 1 3 3 2 1 1 2 2 2 3 4 2 2 3 4 4 1 1 1 1 2 4 6 6 6 7 7 4 2 4 6 4 4 3 1 1 1 4 5 7 6 2 5 5 2 2 4 6 7 7 9 13 9 5 8 10 11 13
8 7 7 8 8 9 10 10 11 12 12 12 10 8 7 5 3 3 5 3 3 2 1 3 2 1 0 1 2 1 3 2 2 1 0 1 1 1 1 2 3 2 4 4 3 2 1 3 2 1 2 4 5 6 7 6 4 3 2 4 5 6 4 2 2 1 3 3 3 1 6 8 7 4 2 2 2 2 2 7 12 8 1 4 8 10 12
6 6 6 6 6 5 6 6 7 8 9 10 10 10 9 7 4 2 4 3 3 4 3 1 3 2 2 2 2 1 1 2 3 1 1 1 1 2 2 2 2 4 3 1 4 4 1 2 4 4 4 3 4 3 3 2 3 3 3 2 3 6 5 2 1 1 1 1 2 4 6 10 7 3 1 1 2 4 3 5 9 7 3 4 10 15 17
6 6 6 6 5 4 3 3 4 6 7 9 11 10 9 8 5 2 3 4 1 3 2 1 2 4 4 3 3 2 2 3 2 2 1 1 0 3 4 4 4 5 2 2 3 3 2 1 3 3 4 2 2 3 1 1 1 2 3 2 2 3 3 3 2 1 1 1 4 4 5 5 5 3 3 2 2 2 1 2 6 5 5 11 15 17 19
6 6 6 5 5 3 2 2 3 4 5 8 11 10 8 7 6 3 2 5 3 1 2 2 2 5 4 2 2 2 0 1 1 2 4 3 2 2 4 4 4 2 2 3 3 3 3 1 2 1 2 2 2 2 2 1 2 2 3 4 5 5 3 4 2 2 1 3 1 3 2 5 6 5 5 3 2 3 1 1 5 5 11 16 16 16 18
5 5 4 4 3 2 1 1 1 2 5 8 9 9 7 7 7 5 2 4 3 1 2 1 1 3 4 1 1 1 2 2 2 1 2 2 2 3 4 3 2 0 2 3 3 3 4 2 2 1 3 3 2 1 2 0 2 3 3 4 5 5 4 3 1 3 1 2 2 3 4 6 6 5 6 5 2 3 4 5 6 8 13 14 13 16 18
4 4 4 3 2 1 1 1 2 3 5 6 6 6 5 5 7 7 3 4 3 1 1 1 1 2 2 2 2 2 2 2 2 1 1 2 2 2 2 1 0 0 1 2 2 3 3 1 1 2 3 3 0 1 1 1 2 3 1 1 2 2 1 1 2 3 3 3 3 3 5 6 6 6 6 4 1 2 5 6 8 11 16 14 13 15 15
3 3 3 3 2 2 3 3 4 5 5 4 4 4 3 2 6 9 4 3 2 1 1 0 0 1 1 1 1 1 1 2 2 2 1 2 2 3 1 1 1 0 2 2 2 2 1 2 2 2 1 4 1 1 1 2 2 2 2 1 0 1 0 0 2 2 2 3 2 4 5 4 3 4 5 3 3 4 5 7 8 12 15 15 14 14 13
3 3 3 4 4 4 5 5 6 5 5 3 2 3 1 0 6 9 4 3 4 2 0 1 1 1 2 1 1 1 1 1 2 3 3 1 2 3 3 3 1 0 2 2 1 1 1 2 3 1 2 4 2 1 2 3 2 2 3 3 3 3 2 1 2 3 1 1 0 2 4 3 2 4 5 4 5 5 7 8 10 10 11 13 13 12 12
5 5 5 6 6 6 6 6 6 5 4 3 2 2 2 2 6 8 4 3 5 3 1 2 1 1 1 0 0 2 2 1 2 2 2 2 2 2 2 2 2 2 1 2 1 1 2 3 2 1 2 2 1 1 2 2 4 3 3 2 2 3 2 2 3 2 1 1 2 3 4 5 3 4 6 6 5 5 6 9 11 10 9 10 10 12 13
7 7 7 7 6 7 6 6 6 5 4 3 1 2 4 6 8 7 4 4 9 8 4 4 3 2 3 3 1 1 2 1 0 0 2 2 1 1 2 1 2 2 2 2 1 1 1 2 1 1 1 2 1 2 2 0 3 4 1 1 1 2 3 2 2 3 2 3 6 5 6 8 4 3 6 9 7 6 7 8 9 10 9 9 9 13 16
8 8 8 8 7 7 6 6 6 5 5 5 4 4 7 9 9 8 7 10 13 10 5 5 4 2 2 3 2 1 1 1 1 1 2 3 0 1 1 1 1 1 1 1 2 2 3 2 1 1 1 2 1 0 1 1 2 3 1 1 2 2 1 1 1 3 4 5 6 6 7 10 11 8 7 7 6 7 8 9 10 10 10 10 10 13 15
7 7 8 8 8 8 8 7 7 6 6 6 6 5 7 9 9 8 7 7 7 5 2 2 1 1 1 1 1 1 1 2 1 1 1 2 1 1 1 1 1 0 1 1 2 2 2 1 1 1 1 3 2 1 1 2 2 2 1 3 4 2 1 1 1 4 5 4 7 8 9 12 15 13 9 8 10 10 9 9 10 11 12 13 13 14 15
5 6 7 7 7 8 8 8 8 7 6 5 5 5 5 6 6 5 2 2 3 4 3 2 2 0 0 1 0 1 4 3 2 3 2 2 1 0 2 1 1 1 1 1 1 2 2 0 1 2 3 3 1 1 2 1 1 1 2 3 4 3 2 3 3 4 5 7 10 11 10 11 10 9 9 12 14 15 13 11 10 11 13 15 16 16 15
4 4 6 6 6 7 8 8 8 8 7 5 3 2 2 2 2 2 2 3 3 4 4 0 2 2 1 1 1 2 4 2 2 3 2 3 1 1 1 2 1 0 1 2 2 2 3 1 2 2 3 2 1 1 2 1 1 1 2 1 3 2 3 3 3 4 6 8 10 12 13 10 7 6 10 12 13 16 17 14 12 13 14 15 17 18 17
4 4 5 6 5 6 7 8 9 10 9 8 6 5 3 3 3 1 1 1 1 2 2 1 2 3 2 1 1 2 3 2 1 1 1 1 1 1 1 2 2 1 3 3 1 2 4 2 0 2 3 2 1 2 1 0 2 3 2 3 2 4 4 3 3 4 6 8 10 11 11 10 9 10 14 14 14 15 15 13 13 15 15 15 16 19 20
4 4 5 5 5 5 5 5 5 7 8 7 6 7 7 6 5 4 3 2 2 3 3 2 1 1 1 1 2 3 3 2 1 1 1 0 1 1 0 2 2 2 3 2 1 2 3 1 2 2 1 0 1 0 1 2 3 4 2 2 2 3 4 3 3 5 8 11 11 9 7 9 12 15 16 15 14 13 13 14 15 15 15 15 15 17 19
7 6 5 4 4 3 1 2 5 7 7 4 2 1 3 5 7 7 5 4 4 5 5 3 1 1 0 1 2 2 2 3 2 2 2 1 1 1 1 2 2 2 3 3 2 2 2 2 2 1 0 1 0 1 1 2 3 3 1 1 3 3 3 3 4 7 9 11 11 8 7 10 14 16 15 14 14 13 14 16 16 15 17 18 16 16 19
8 8 6 5 3 1 2 4 6 8 7 3 1 1 2 3 5 7 5 2 3 4 4 4 1 1 1 1 1 2 2 1 1 1 1 1 1 0 1 2 2 2 3 3 2 1 1 1 1 2 2 1 2 1 1 2 1 1 2 4 6 5 4 4 5 6 9 10 10 8 9 11 14 14 13 14 16 16 14 15 17 18 21 23 18 17 21
6 7 6 5 5 4 4 5 6 7 6 3 1 2 2 1 4 6 4 2 1 2 4 4 1 1 2 1 1 1 1 1 1 1 0 1 1 1 1 1 1 1 2 2 1 1 1 0 1 2 3 2 4 3 2 3 2 5 7 8 8 7 6 6 6 6 9 11 10 9 9 9 9 11 12 13 19 21 16 16 21 24 25 25 23 21 23
4 3 3 3 3 3 3 3 5 6 7 6 5 4 3 1 4 5 2 1 1 1 3 3 1 1 2 2 1 1 1 1 1 2 1 1 2 2 2 2 1 1 2 2 1 1 0 1 1 1 1 3 4 3 3 5 4 6 9 10 9 8 7 7 8 8 8 9 9 11 12 11 10 12 14 16 21 24 20 19 25 29 27 26 26 26 26
3 3 2 1 2 3 3 3 4 3 4 5 6 5 4 4 6 6 2 0 1 1 3 3 2 1 1 1 1 2 2 1 1 2 2 1 1 1 2 3 2 2 3 2 1 0 0 1 2 1 2 2 3 4 4 5 4 6 9 9 9 8 7 7 8 8 8 8 8 8 12 15 17 19 21 22 22 24 23 23 25 26 24 22 20 21 25
4 4 4 4 4 3 3 3 3 2 1 1 3 4 4 5 6 7 3 1 1 2 3 4 2 1 3 2 1 2 2 1 2 2 2 1 1 1 1 3 2 2 3 2 0 0 1 1 2 1 2 3 3 3 3 5 7 8 8 9 9 9 8 8 7 6 8 9 9 9 13 17 19 20 21 20 20 23 25 24 21 19 18 16 16 17 20
5 5 5 5 5 4 4 2 2 1 1 1 1 2 3 3 5 9 8 4 2 2 2 3 3 2 3 4 3 2 2 2 1 1 0 1 2 2 1 1 2 2 1 1 1 2 1 1 2 2 2 3 3 3 3 7 10 10 10 11 12 11 11 11 12 11 10 9 9 11 14 16 16 17 17 17 18 21 22 21 20 19 16 15 17 18 17
6 5 6 6 5 4 3 1 0 0 0 0 1 2 2 1 3 6 8 9 8 4 2 1 3 2 1 2 4 3 3 3 2 1 1 1 2 2 2 3 2 1 1 2 2 2 1 0 2 2 3 3 3 2 4 7 10 12 12 12 11 10 10 13 15 15 14 12 10 10 12 14 15 15 16 17 17 18 20 21 21 19 16 16 18 17 16
6 6 6 6 3 2 1 1 1 0 2 1 1 1 2 3 2 2 4 7 10 8 5 4 1 1 1 1 3 3 5 3 2 3 3 1 1 2 2 3 1 1 2 4 2 1 2 2 3 3 2 2 2 2 5 5 8 11 11 11 10 10 10 11 13 15 17 17 15 14 15 18 18 16 16 18 19 18 20 20 18 16 15 14 14 15 19
6 5 5 2 0 1 0 1 1 3 3 1 1 2 2 2 2 2 2 3 6 7 5 4 1 1 1 1 2 3 3 2 2 3 2 1 1 2 1 2 1 1 2 2 2 1 2 3 3 4 2 1 1 3 4 5 6 7 8 9 10 10 10 11 13 15 15 15 17 18 19 22 24 23 22 23 23 22 21 20 18 15 14 14 16 20 24
4 3 2 0 1 1 0 2 3 4 2 0 2 1 2 3 3 2 3 2 3 3 4 3 1 0 2 2 3 3 4 3 3 3 2 1 1 2 1 1 0 1 2 1 2 1 3 2 2 3 2 2 5 5 5 7 7 7 9 12 13 13 14 15 15 15 14 13 15 17 18 18 20 21 21 21 22 23 24 22 20 19 20 23 27 27 24
2 1 0 1 1 1 2 4 4 2 1 1 2 1 2 3 2 1 1 3 3 2 2 2 0 1 2 2 3 3 4 4 1 1 1 1 1 0 1 1 0 1 1 1 2 1 2 0 1 2 2 5 8 8 7 8 8 8 12 15 16 19 22 20 19 21 21 20 22 24 23 20 20 20 20 21 21 21 21 21 24 28 30 32 32 30 28
1 1 2 1 2 2 2 4 4 2 2 2 3 2 2 2 2 1 2 3 3 2 1 2 3 3 3 2 0 2 2 3 1 2 1 2 1 1 1 1 1 1 0 2 2 2 3 2 2 1 2 5 7 8 10 11 10 10 13 18 21 25 27 25 24 25 25 24 26 27 26 24 25 26 27 26 23 19 19 23 29 34 35 33 33 34 35
1 1 2 2 2 2 2 3 4 3 2 2 2 2 1 1 2 2 2 1 1 2 2 2 2 3 3 1 1 2 1 3 2 2 2 1 1 1 1 1 2 2 1 2 1 3 3 2 2 3 4 6 9 10 11 12 11 11 15 20 24 28 29 27 26 27 29 28 27 26 26 29 31 31 30 29 29 29 29 30 32 34 36 36 36 34 32
2 3 3 2 3 4 3 3 3 3 2 3 3 2 3 3 2 2 2 2 1 2 2 2 3 3 3 1 0 1 1 2 2 1 1 1 1 2 2 2 2 1 0 0 3 4 2 1 1 4 6 7 9 11 12 14 14 14 16 20 24 28 29 28 27 30 32 30 27 26 30 33 33 31 29 31 35 36 36 36 36 37 38 37 32 29 30
3 3 3 2 2 4 3 2 2 3 3 2 2 2 2 3 2 1 2 3 2 3 2 2 3 4 3 1 1 1 1 1 1 1 1 1 1 2 2 1 1 1 1 2 3 2 1 1 2 5 7 8 10 12 13 14 14 14 15 21 26 28 28 28 29 30 30 28 26 29 32 32 30 28 29 33 35 33 33 37 41 40 36 31 28 29 33
2 2 4 4 3 3 2 1 2 3 3 1 1 3 2 2 3 3 3 2 1 3 3 2 2 1 3 3 0 1 1 1 2 1 1 1 2 1 0 1 1 1 2 2 2 2 3 3 4 7 10 11 12 13 13 14 15 16 16 19 25 27 27 28 28 26 25 26 30 32 31 29 28 28 30 33 34 31 30 34 38 38 34 31 31 35 40
3 2 3 4 2 2 2 2 2 2 1 1 2 3 3 3 4 4 3 1 1 3 4 3 1 2 3 2 1 1 1 2 1 1 0 2 2 1 2 0 2 3 3 3 3 2 3 5 6 7 10 13 13 13 13 15 18 18 15 16 21 26 28 28 27 25 25 29 32 31 28 28 30 31 31 32 32 31 31 34 35 35 35 34 34 38 44
3 1 3 4 1 2 2 1 0 1 1 2 2 3 2 3 3 2 1 1 1 3 4 3 2 2 2 2 1 1 1 2 1 1 1 2 0 2 1 3 2 2 2 2 3 4 4 6 7 8 10 13 14 13 14 15 16 17 17 18 22 25 27 28 27 27 28 31 31 29 28 30 32 32 31 29 29 31 34 36 36 38 39 38 38 40 44
2 1 3 3 1 1 1 0 0 0 1 1 1 1 2 1 2 2 3 3 3 3 3 2 1 1 2 1 1 1 2 1 1 1 1 1 1 2 3 3 2 1 0 1 3 5 6 7 9 10 12 12 13 13 13 13 15 18 21 22 24 26 28 29 28 28 30 32 30 28 30 33 33 31 31 30 31 34 36 37 38 40 41 41 42 44 45
6 4 3 2 2 1 1 1 2 1 2 2 2 2 3 4 2 4 5 3 3 3 3 1 1 0 1 1 1 2 2 2 1 1 3 3 3 1 1 2 3 3 2 2 4 6 7 8 10 12 13 12 11 12 12 14 18 22 24 24 26 27 29 30 30 30 31 32 30 30 32 33 31 31 34 34 34 35 36 37 39 40 42 42 43 44 44
7 5 2 2 3 1 1 1 3 2 4 5 4 3 4 4 3 4 4 3 3 3 2 1 1 1 1 1 2 3 2 1 1 3 3 3 2 1 1 1 2 4 5 5 5 7 8 8 10 12 14 13 12 12 12 16 22 26 28 29 30 29 29 29 30 31 32 33 32 32 32 31 32 34 36 36 37 38 38 36 35 37 40 42 41 40 38
5 5 2 1 2 2 0 2 3 2 3 4 3 3 4 3 2 4 7 6 3 3 4 2 1 1 3 3 2 2 1 1 3 4 2 0 1 2 1 3 5 5 6 6 6 7 8 8 9 10 12 13 14 15 17 22 27 29 30 31 31 29 29 30 30 30 32 33 32 31 32 34 36 37 37 38 39 38 35 34 35 38 40 40 36 34 34
3 3 1 1 2 2 2 2 3 2 2 1 1 2 2 2 4 8 10 7 3 3 2 1 1 3 4 2 1 1 2 2 3 3 2 1 1 1 2 5 6 6 6 7 7 6 7 9 11 13 14 15 16 20 26 30 31 31 31 31 30 29 29 30 30 31 32 32 31 33 36 38 40 40 39 38 34 29 26 30 37 42 42 38 34 33 36
Wind_Direction
280 291 302 314 331 328 323 339 348 355 358 354 349 335 35 100 198 286 13 355 353 69 49 316 14 56 249 285 271 280 89 113 87 283 319 39 117 16 21 187 194 203 187 138 167 198 211 190 196 229 234 228 235 340 28 42 90 95 130 236 211 111 90 41 277 289 301 310 350 42 93 107 153 236 167 146 161 144 155 182 191 194 207 168 95 265 268
278 287 297 308 321 318 322 345 356 4 6 1 357 359 143 151 219 258 3 345 39 112 196 257 338 292 303 6 311 263 172 154 161 210 246 231 156 125 235 202 175 159 118 101 179 206 220 215 220 217 217 238 11 22 351 3 129 147 183 185 182 248 177 104 325 323 332 342 354 348 338 140 225 246 195 168 129 101 112 154 108 283 222 174 161 257 260
282 285 291 298 304 306 319 347 359 4 1 359 8 63 131 98 271 283 344 14 71 134 186 148 147 231 16 12 256 246 231 192 186 192 207 201 164 152 299 227 117 90 90 78 206 209 235 252 295 13 241 262 345 13 321 339 157 244 277 10 249 234 193 146 190 281 291 300 302 287 272 243 237 233 199 198 154 139 163 145 114 244 236 169 177 250 271
285 283 284 286 291 298 309 337 355 356 357 5 26 65 93 82 335 305 329 15 58 68 117 108 117 163 162 279 288 164 168 286 275 170 168 162 132 115 319 143 97 71 95 166 268 257 251 343 341 301 248 267 299 272 322 60 184 235 302 34 73 100 236 212 200 210 232 254 256 211 118 279 274 263 221 201 194 169 134 107 177 200 192 207 225 244 278
283 279 280 280 284 292 295 314 336 341 356 8 22 42 53 103 178 173 323 344 35 38 18 63 86 161 184 194 254 199 236 307 339 128 203 297 90 103 128 150 165 179 174 197 247 248 262 56 245 236 233 256 284 264 158 89 274 241 272 20 88 95 287 246 209 228 245 257 267 287 13 273 266 269 248 199 191 170 157 202 222 157 114 268 254 225 252
280 276 280 281 284 287 282 286 310 335 357 359 6 28 30 65 189 153 128 271 303 27 5 84 92 71 154 149 166 201 259 276 227 206 355 2 312 181 297 241 212 193 173 161 203 255 298 263 242 234 245 272 336 342 220 101 341 349 35 354 101 127 258 245 197 249 264 268 276 278 270 263 261 266 259 217 188 182 197 225 225 165 196 259 268 253 252
279 280 285 285 283 282 272 267 281 319 347 342 360 75 351 51 130 303 16 111 194 211 341 107 105 84 73 106 177 177 189 233 238 195 68 354 297 195 234 261 238 203 180 154 172 214 212 273 266 218 198 235 32 317 253 147 360 13 88 345 125 148 247 251 172 279 278 275 280 273 254 267 273 266 252 220 204 202 212 234 234 210 236 258 271 279 278
284 287 289 286 282 275 264 257 264 288 327 328 357 145 263 100 168 244 33 62 135 30 18 91 107 61 10 282 242 179 178 217 246 181 151 211 268 181 221 254 243 196 185 170 204 218 190 214 255 188 164 253 210 217 226 143 51 22 112 335 299 194 268 265 95 308 285 288 323 323 245 249 270 276 267 229 214 218 226 244 247 232 250 261 271 281 280
290 292 290 288 284 273 260 251 254 267 306 326 29 143 217 139 157 147 111 94 321 357 7 87 111 54 305 214 231 215 200 210 213 205 185 172 178 187 200 220 167 108 172 204 238 234 187 199 232 190 179 237 213 215 218 138 127 141 159 73 89 178 277 5 50 340 288 319 5 332 295 276 272 285 290 224 191 210 227 235 219 203 238 269 284 283 274
295 295 293 288 281 269 258 251 249 255 272 295 24 191 197 154 94 92 108 102 297 96 46 42 97 237 240 201 205 226 243 231 194 210 315 81 148 196 187 168 122 95 198 226 242 237 195 216 240 195 170 114 90 93 98 116 129 159 164 142 128 144 150 4 38 318 276 300 335 315 319 323 292 279 265 175 187 223 243 250 230 207 209 263 274 263 277
296 294 291 285 278 271 263 255 251 250 256 258 246 235 210 176 165 61 82 33 297 102 92 352 194 220 228 195 204 222 271 248 191 214 278 359 31 169 152 142 146 223 222 239 257 248 214 217 156 103 87 67 69 79 83 81 81 138 147 142 169 122 115 175 182 247 273 296 321 327 341 319 272 223 170 198 239 238 232 264 265 233 201 233 268 283 296
300 299 297 291 284 278 270 263 258 253 253 254 246 238 225 192 166 85 96 141 276 21 60 249 220 207 235 146 157 224 217 214 219 229 263 268 311 18 111 134 158 246 274 307 314 286 247 295 89 97 57 52 63 67 66 61 34 26 128 132 138 130 125 193 186 186 267 304 349 356 289 239 257 267 217 241 241 216 212 258 275 265 223 242 269 285 292
308 307 304 298 290 279 268 261 255 248 247 248 238 225 215 192 157 98 109 143 244 205 178 269 254 198 256 178 163 233 243 248 288 307 111 264 283 327 355 146 170 270 318 340 5 53 345 320 317 284 351 29 56 54 44 39 25 14 52 107 131 141 146 179 176 188 276 334 29 330 271 284 305 329 309 279 277 279 290 288 289 300 307 248 275 296 308
307 305 304 303 300 284 263 247 238 234 231 226 217 212 208 195 175 118 116 123 266 229 180 328 307 226 210 203 159 109 325 318 321 299 147 90 188 245 262 223 240 292 305 352 32 41 24 350 10 350 331 16 36 15 8 19 34 33 9 356 133 136 141 183 242 217 196 227 247 263 309 323 327 348 355 331 328 319 318 294 294 311 17 348 332 333 330
307 307 307 303 305 299 269 240 220 218 213 203 198 198 200 199 197 180 138 131 222 254 205 246 239 189 184 193 155 118 353 325 311 287 310 44 60 236 237 234 268 297 318 90 53 48 49 18 23 351 336 10 360 311 292 314 349 38 31 18 93 112 147 172 197 257 100 72 301 317 351 322 277 268 294 281 228 239 212 247 278 298 2 358 347 338 330
306 304 304 303 308 308 285 252 224 215 200 189 191 193 198 203 200 186 127 116 115 270 260 233 161 139 139 172 173 158 201 186 188 318 336 346 338 272 253 256 276 297 54 66 66 79 62 44 145 166 287 236 224 287 300 315 327 3 25 39 55 41 37 110 121 309 42 96 268 275 265 255 250 265 300 308 214 192 86 344 269 305 353 353 344 334 328
303 307 315 323 325 320 308 262 206 188 182 185 194 202 210 215 208 202 145 93 101 289 284 267 111 110 111 106 223 199 174 152 138 17 336 303 297 298 294 301 304 263 92 59 34 65 75 78 135 190 265 227 169 297 298 343 324 316 338 27 45 33 20 65 144 258 203 145 222 249 244 259 277 298 310 308 206 151 31 340 288 319 345 345 337 330 326
320 333 342 350 351 4 46 111 135 139 162 183 198 210 221 230 218 205 166 94 108 235 326 11 52 106 128 166 190 189 167 136 115 77 3 305 276 244 260 295 49 308 78 88 57 67 90 187 178 174 253 263 80 342 279 240 282 275 217 92 63 58 34 86 172 209 201 189 227 271 263 264 288 298 287 277 222 75 16 321 300 326 335 332 331 326 319
357 3 10 24 43 76 92 107 119 127 142 163 191 208 226 243 202 189 161 88 105 197 286 324 172 169 178 183 165 164 147 116 120 120 54 331 265 195 181 30 127 343 28 88 115 103 114 261 247 144 239 293 321 121 235 239 228 189 144 140 297 150 128 58 147 182 199 179 201 292 287 265 281 282 270 298 360 351 318 300 310 324 323 321 323 319 315
43 45 54 65 79 91 99 106 112 120 125 118 144 173 135 117 183 179 166 112 109 102 262 228 196 190 205 214 161 148 135 109 131 141 145 211 216 128 57 351 306 33 33 62 132 145 160 244 266 166 201 261 260 159 277 285 264 194 179 216 231 186 184 255 211 191 156 66 48 308 283 261 310 330 331 2 355 311 296 307 315 314 313 314 315 312 313
68 70 74 80 89 94 99 105 105 105 106 97 126 155 86 92 166 172 179 151 117 105 224 215 177 119 139 289 236 149 135 145 183 176 163 200 212 130 108 272 223 166 165 152 154 245 200 200 244 241 209 247 276 231 243 308 315 270 192 183 228 196 182 289 265 208 110 62 227 245 289 299 347 7 338 323 308 294 304 314 312 311 315 314 311 312 313
70 72 77 82 90 96 100 106 102 90 76 64 67 149 118 117 141 157 165 107 93 89 108 129 106 87 93 78 66 162 146 105 338 206 131 127 208 174 140 167 178 184 193 142 115 287 232 179 189 223 236 257 276 243 204 152 314 296 259 99 295 231 196 202 236 225 214 238 244 264 310 318 329 338 308 301 296 291 299 304 305 311 317 317 317 316 314
69 70 75 79 85 95 100 105 104 94 80 73 78 121 134 131 130 129 119 101 90 82 89 107 97 66 64 60 65 129 140 50 356 319 110 106 149 244 154 139 190 213 189 147 185 202 187 182 176 145 235 237 203 255 320 289 272 283 324 352 304 289 145 123 239 276 277 265 272 298 324 321 318 317 305 300 306 307 310 313 311 311 314 316 315 312 311
70 72 74 76 82 92 99 103 102 96 89 83 82 102 127 134 133 124 111 100 95 87 73 65 59 43 358 14 90 100 330 311 248 215 114 113 122 299 278 232 177 29 311 228 188 141 128 193 177 111 241 237 168 157 290 287 251 239 9 333 313 323 12 25 326 316 317 310 308 321 327 315 314 319 317 315 317 317 317 316 311 312 316 316 315 315 314
72 75 77 82 88 94 97 97 92 87 85 84 91 107 120 130 144 146 112 67 101 119 100 349 325 160 124 330 306 284 313 307 203 192 242 241 184 236 292 278 152 203 264 231 117 82 77 189 142 138 226 251 230 215 241 286 265 256 28 349 317 325 355 356 347 324 302 289 293 304 305 294 295 313 323 323 323 321 319 316 311 312 315 314 314 315 314
75 85 87 90 94 99 101 96 85 77 72 68 80 112 127 127 152 151 93 69 89 102 99 358 281 252 257 302 321 321 329 333 172 187 252 272 257 247 307 344 8 201 75 64 90 119 118 121 105 131 205 255 4 177 212 278 346 38 48 317 280 323 354 340 326 304 285 285 299 315 316 301 288 312 321 317 316 315 314 315 314 314 314 312 312 311 308
82 100 103 100 104 114 115 104 84 68 59 54 58 68 74 94 121 112 52 52 57 60 82 140 284 293 270 221 271 331 342 2 152 185 286 291 236 222 325 358 11 61 62 49 57 99 88 72 108 184 207 242 69 130 184 358 79 82 33 289 300 4 356 333 339 332 312 306 313 323 320 306 301 316 316 311 309 309 308 311 315 315 315 313 312 310 308
79 97 106 110 116 125 125 103 60 41 39 40 49 62 66 70 73 58 36 47 110 118 126 149 235 347 110 198 290 320 347 8 56 124 111 99 144 156 39 26 46 75 79 79 105 90 90 128 221 213 190 79 41 39 329 22 67 70 15 311 332 3 338 326 338 318 297 296 302 306 301 293 300 311 313 311 312 311 309 312 314 311 310 311 311 310 310
71 80 94 107 118 139 164 344 341 343 352 353 345 36 56 54 51 46 41 60 93 104 106 102 66 27 128 251 284 306 336 352 18 111 139 148 153 154 48 40 73 107 103 94 105 116 142 192 213 240 67 128 175 278 341 52 73 79 56 318 304 296 268 263 290 293 289 292 297 298 295 295 301 306 308 308 310 310 311 312 312 309 311 312 311 309 310
64 67 73 82 89 83 352 355 346 340 340 329 285 10 34 34 27 23 25 55 102 113 113 110 112 301 302 267 281 304 316 347 42 86 151 159 142 151 17 34 70 95 74 55 78 133 221 277 348 327 299 264 122 124 105 86 87 252 277 314 321 311 282 265 274 287 293 295 294 293 291 292 297 302 303 302 305 307 306 305 305 306 307 308 308 308 309
50 55 60 62 62 60 48 37 28 19 16 22 93 71 66 14 346 359 17 50 81 120 111 96 87 320 342 347 314 331 329 331 27 46 104 115 87 79 73 56 46 74 77 60 60 112 166 13 32 343 319 19 78 113 136 91 30 316 317 334 333 318 305 295 284 281 288 294 299 299 291 283 288 299 303 304 306 307 303 299 301 303 302 303 305 305 307
13 21 36 46 44 45 42 24 20 30 41 57 77 90 109 67 356 355 13 54 18 139 110 79 48 318 332 328 311 339 340 304 21 49 73 108 106 88 59 37 36 78 90 94 72 44 117 152 104 346 331 35 64 98 103 69 26 326 322 329 322 309 305 304 299 294 291 295 305 312 310 308 307 304 303 304 306 305 301 299 302 303 303 304 305 306 309
324 322 326 332 338 344 344 338 347 13 44 61 71 78 77 47 20 9 6 100 47 96 108 94 80 337 310 275 286 336 350 318 348 23 42 71 126 114 26 10 30 43 29 37 144 201 85 119 106 49 349 28 78 96 73 39 352 310 310 315 309 302 298 293 292 295 297 297 301 306 306 306 305 303 303 303 304 304 301 299 300 301 304 305 306 310 315
304 304 300 290 297 313 315 319 333 341 339 44 72 68 55 39 29 24 23 166 141 62 60 82 98 328 330 347 333 348 25 12 335 356 17 352 18 92 37 348 14 45 21 5 80 58 357 39 97 65 342 358 52 76 40 353 328 314 315 316 312 308 306 302 301 303 305 307 302 288 285 289 294 299 302 304 307 309 307 304 302 302 302 304 308 314 317
306 307 303 295 298 301 296 304 327 291 215 154 110 47 32 49 55 49 47 52 63 40 20 44 73 74 6 352 321 305 19 22 323 333 36 333 4 77 112 18 16 41 33 348 44 51 10 28 105 86 349 357 42 55 8 339 332 330 332 329 327 328 326 323 321 318 315 313 302 290 291 296 301 306 309 311 314 316 314 311 308 305 305 310 316 320 323
301 303 306 304 301 290 269 244 166 183 183 166 276 333 3 112 106 67 54 47 47 69 143 66 60 99 74 337 294 301 356 354 318 350 27 8 355 15 74 80 57 30 51 41 44 44 15 61 101 54 5 35 66 27 331 337 336 333 331 328 327 328 322 315 314 315 315 312 305 300 304 310 310 311 312 313 316 319 317 315 313 310 311 318 322 325 327
298 302 305 302 302 301 257 203 169 350 337 300 260 359 68 118 131 73 48 39 37 46 81 93 82 177 173 277 287 332 353 331 315 357 355 317 317 343 47 78 89 259 22 27 18 43 18 30 87 90 72 82 76 312 311 336 335 325 324 324 321 321 317 310 311 314 316 318 322 325 326 323 320 319 319 319 321 322 318 314 312 311 313 319 323 322 319
301 304 302 290 23 55 8 239 285 326 328 307 160 96 52 59 64 36 6 10 17 23 52 81 96 281 17 318 297 344 2 325 334 13 351 270 311 345 26 78 132 201 24 346 278 208 40 19 56 102 139 203 319 324 326 336 325 308 308 313 312 313 316 316 318 321 323 328 332 335 336 333 330 329 328 325 324 323 318 312 312 317 323 326 324 320 317
305 297 293 236 102 109 228 316 334 336 336 104 133 108 10 18 45 27 338 352 11 3 24 59 100 192 50 3 313 348 38 31 358 1 350 302 324 333 345 40 73 58 44 346 285 54 52 358 5 77 99 329 348 356 346 337 327 314 312 313 314 320 322 321 326 330 326 320 322 326 329 329 325 323 323 321 319 317 314 315 324 334 335 329 325 323 319
310 297 355 64 60 34 349 343 344 349 84 53 39 59 34 27 43 59 355 24 26 338 353 48 89 223 71 46 308 318 30 41 12 326 323 291 254 42 37 35 346 41 37 298 289 51 85 67 352 41 25 339 344 348 344 340 335 327 323 323 329 335 334 333 336 336 328 321 322 323 321 319 319 318 316 313 311 312 317 327 335 336 332 327 324 321 316
336 39 34 23 18 15 9 11 18 55 108 52 26 41 47 12 355 25 51 41 8 302 305 51 27 341 2 47 263 277 355 29 82 131 100 308 295 69 44 310 314 66 32 260 281 64 85 70 18 16 316 324 336 340 340 339 336 332 332 336 340 342 340 337 337 336 334 329 324 320 318 322 325 321 312 308 313 323 334 336 333 328 325 321 317 314 314
12 39 46 60 57 47 43 38 31 29 46 55 36 28 17 354 355 8 16 24 314 299 324 35 25 318 302 319 209 232 299 4 32 85 78 323 303 99 90 319 359 57 212 251 353 60 67 48 10 325 308 327 341 341 339 338 337 335 338 343 344 342 339 335 334 335 335 329 319 315 322 329 326 317 314 322 334 339 337 331 325 321 318 315 312 314 322
76 75 80 91 62 33 24 19 20 30 47 45 36 19 357 354 10 5 322 297 358 19 347 341 350 333 313 315 204 244 278 350 21 78 89 329 333 65 56 20 16 47 262 357 55 55 62 85 16 323 323 336 343 341 340 339 335 332 335 341 343 339 335 334 335 333 329 324 319 323 329 326 318 316 328 341 342 335 328 325 322 317 313 312 316 325 335
103 77 66 71 27 16 16 358 4 41 51 30 44 77 10 333 320 294 294 306 347 12 350 344 5 350 319 302 30 338 311 359 57 72 20 339 12 60 51 334 281 288 344 30 52 43 18 209 261 315 334 343 342 341 341 338 331 328 330 336 339 339 337 337 335 331 326 325 329 331 327 321 319 327 339 342 336 326 321 323 323 318 316 321 329 334 338
88 28 38 42 9 2 27 359 353 38 59 20 185 158 171 255 261 244 250 266 330 347 340 3 44 334 281 278 358 43 312 345 26 29 344 2 23 35 251 248 275 41 42 30 22 10 346 317 313 331 341 341 337 337 336 328 324 326 330 334 339 342 341 337 334 330 328 331 333 330 325 324 330 336 336 333 329 324 322 323 324 325 329 336 339 336 335
88 66 74 78 17 343 60 68 10 31 108 215 211 176 179 227 245 241 246 299 7 324 307 299 241 232 270 296 349 29 14 24 15 314 88 76 41 297 244 206 39 40 41 25 6 347 317 312 321 335 338 333 330 329 326 322 324 331 337 339 339 339 337 334 331 330 329 330 330 328 328 331 334 331 327 325 326 328 329 330 332 335 338 340 338 334 332
84 61 79 87 41 1 53 90 234 223 184 200 200 191 215 255 265 261 285 322 299 282 284 278 240 226 255 298 346 340 354 41 39 309 349 85 49 300 351 57 45 29 50 24 326 294 295 315 330 336 333 329 327 324 321 322 330 340 344 342 337 334 333 333 331 329 328 330 330 330 331 331 328 325 324 326 331 335 336 336 336 339 339 336 332 331 330
93 48 66 98 128 9 35 97 198 73 46 29 314 262 277 326 351 328 307 293 280 289 308 328 3 309 299 319 35 327 316 13 52 342 343 69 50 349 10 27 356 308 124 5 306 302 311 325 331 329 325 323 323 321 320 327 339 346 346 341 336 332 332 332 330 329 331 333 333 331 329 327 326 327 331 334 336 337 337 336 336 338 337 333 331 330 328
75 72 68 90 125 153 154 98 88 53 334 346 1 5 16 25 351 295 294 307 316 305 287 236 144 89 304 310 56 51 4 2 39 21 17 36 46 29 10 9 338 308 292 304 317 321 324 326 324 320 317 318 319 319 323 336 344 345 342 338 333 330 330 330 330 331 333 334 331 327 326 328 331 337 340 338 335 333 334 335 336 336 335 334 331 327 323
55 64 61 46 52 54 302 37 57 355 323 346 13 15 4 359 324 303 325 346 335 328 352 51 89 28 339 7 41 40 16 352 42 51 38 33 38 47 22 350 300 291 300 314 324 324 322 321 318 314 313 318 322 322 332 345 347 342 338 335 331 329 329 329 329 331 333 332 328 327 331 337 342 343 341 336 331 329 331 334 336 336 334 333 329 325 325
46 60 67 44 58 78 143 78 81 59 343 352 1 334 328 321 280 305 331 338 342 15 31 27 324 23 39 37 26 12 359 33 54 53 39 357 121 81 9 285 277 293 314 319 321 323 318 314 313 315 317 321 324 330 342 348 345 338 334 332 330 329 330 331 330 330 331 330 330 335 341 344 343 340 337 334 332 331 331 334 337 337 335 332 331 333 336
53 65 75 40 51 76 86 71 70 62 28 355 260 286 330 316 283 303 322 339 23 61 38 338 67 59 52 43 17 12 24 36 42 31 355 271 152 79 309 287 295 315 319 311 313 320 312 306 311 315 316 318 326 337 344 344 340 336 333 331 330 332 333 330 329 331 334 335 339 343 344 342 340 339 338 337 337 336 333 333 335 337 336 335 336 339 339
Height
855 855 854 853 853 852 851 851 850 848 847 847 846 846 846 847 846 845 844 845 845 846 850 862 868 862 866 874 874 874 874 871 872 874 873 871 870 869 867 867 866 864 866 867 867 865 861 861 862 860 861 865 872 883 887 883 879 873 871 874 877 876 874 870 859 851 855 866 875 877 876 874 867 865 872 873 865 861 860 863 869 872 873 876 886 867 809
855 854 854 854 853 852 852 851 850 849 848 848 847 846 848 849 848 846 845 844 844 846 849 852 853 861 872 873 870 873 874 871 870 869 868 869 868 865 864 867 866 867 871 869 866 866 861 856 861 865 862 868 882 890 887 884 879 874 873 873 873 870 867 866 859 849 847 851 856 860 865 869 863 861 871 870 867 874 876 879 882 872 859 858 863 844 800
855 854 854 853 853 852 852 851 850 850 849 848 848 847 849 849 849 849 847 845 846 849 854 852 851 861 869 865 865 868 869 872 872 868 868 872 871 865 866 870 870 870 873 870 869 872 865 858 864 869 866 871 885 890 888 886 882 879 883 882 876 870 868 866 858 851 848 841 837 840 846 858 860 860 868 869 869 871 866 868 876 867 860 862 853 824 792
854 854 853 853 853 852 851 851 851 850 849 849 848 847 850 850 849 849 848 847 850 856 864 860 853 859 861 858 864 866 862 869 875 871 869 871 873 870 869 872 870 869 871 866 865 870 871 869 869 867 862 867 882 889 888 888 886 884 887 886 880 876 876 871 860 853 849 836 835 847 853 853 851 851 859 866 870 871 866 867 866 858 862 861 839 820 808
853 853 853 852 852 851 851 851 851 850 850 850 848 849 852 851 851 852 850 848 850 855 862 861 856 859 858 854 861 864 861 865 870 871 870 872 874 871 870 871 866 863 866 863 861 868 873 873 870 867 866 870 881 889 888 887 887 886 887 885 881 876 872 872 868 860 852 843 844 857 863 857 850 849 853 860 869 874 870 863 851 847 855 843 818 820 826
853 853 852 852 852 851 851 851 851 851 850 849 849 851 853 852 853 858 856 852 851 852 856 861 860 861 861 860 862 862 861 860 859 864 872 875 873 868 865 867 864 862 864 860 859 866 868 866 866 866 869 873 876 879 884 889 890 887 887 886 883 877 870 873 874 863 856 858 858 861 864 861 856 853 853 858 867 871 863 852 845 847 846 826 808 817 823
852 852 852 851 851 850 851 851 851 851 850 850 850 851 854 855 855 860 860 855 857 861 863 865 860 858 860 861 861 860 857 855 857 865 869 867 871 870 859 856 862 865 866 862 858 860 857 855 859 863 866 872 870 865 868 883 893 889 884 886 887 878 870 876 882 870 860 859 860 863 865 862 856 853 853 856 859 861 857 848 845 848 843 827 819 822 821
852 851 851 850 850 850 850 850 850 850 850 850 850 849 853 852 851 855 858 857 863 868 868 864 858 860 862 856 857 861 857 852 858 865 861 854 864 872 860 853 862 868 869 864 857 855 853 850 855 861 862 867 869 861 857 871 889 890 883 886 888 878 871 879 884 871 858 857 859 860 862 862 855 846 844 849 853 856 858 855 852 854 848 837 834 837 829
850 850 850 849 849 849 849 849 849 850 850 850 850 850 851 851 850 852 852 854 862 865 866 865 857 855 858 854 855 859 856 856 858 859 860 858 859 865 860 855 863 871 872 866 857 857 860 856 857 862 860 860 863 862 861 868 878 884 887 887 885 881 877 880 881 867 854 858 861 855 855 857 847 833 829 837 846 848 849 852 853 848 839 834 837 836 821
849 849 849 848 848 848 848 849 848 849 849 849 850 850 851 851 851 852 850 852 862 864 863 865 858 852 856 857 856 856 856 863 862 853 859 867 865 865 864 860 862 865 864 861 859 862 867 864 865 868 866 866 867 867 869 871 871 878 887 888 889 889 879 875 880 868 851 857 863 859 853 839 822 819 823 827 833 836 836 838 840 838 833 828 824 816 803
848 848 848 847 848 847 847 848 847 848 848 849 850 849 850 850 848 852 852 849 859 868 862 857 854 853 858 860 859 858 858 862 863 854 853 863 869 871 870 865 861 859 859 864 868 871 872 870 871 872 870 870 872 873 874 875 876 879 880 882 891 894 883 880 886 870 850 855 861 854 843 822 808 819 828 826 828 829 826 821 818 822 828 822 812 807 803
847 847 846 846 846 845 845 846 845 847 847 847 849 848 849 850 848 851 852 847 857 869 862 855 857 858 860 862 860 859 859 861 866 864 859 861 869 872 872 867 860 859 867 872 872 872 870 869 870 871 871 871 872 874 874 875 880 884 879 875 883 888 883 883 888 878 862 861 857 839 822 811 813 824 830 829 830 827 823 818 809 813 822 819 814 812 808
846 846 845 845 844 843 843 843 843 845 845 845 847 847 847 849 848 849 852 848 852 860 855 855 867 868 864 864 861 862 868 870 871 872 867 865 866 869 873 872 866 867 873 874 872 869 866 864 864 864 869 874 873 874 877 877 879 883 882 878 877 879 880 880 883 880 867 860 856 839 820 814 818 823 825 829 830 824 823 820 809 807 815 817 816 813 809
846 846 844 843 844 842 842 842 841 842 843 843 845 846 846 848 848 848 852 848 849 860 860 854 859 863 861 862 863 864 869 871 869 868 870 870 868 869 875 877 873 873 875 872 869 867 862 859 857 854 858 862 859 862 875 883 882 880 881 881 878 876 877 875 876 876 871 867 863 850 833 821 816 817 823 829 828 826 828 826 813 807 813 817 815 812 808
845 845 844 843 843 842 841 842 841 841 842 842 844 846 845 847 848 847 850 849 849 858 862 852 849 853 856 861 864 861 861 864 865 866 871 876 874 872 875 877 874 873 874 871 867 866 863 858 854 848 844 843 843 849 864 877 881 883 883 883 881 879 876 872 869 873 878 875 865 855 841 822 811 817 827 832 833 834 835 833 821 810 813 816 814 813 810
845 844 844 842 842 841 841 841 841 841 842 842 843 845 845 846 848 847 849 850 847 848 856 859 858 858 858 863 868 863 857 860 863 862 864 868 872 873 874 874 873 872 873 870 868 868 863 859 860 855 846 846 848 847 853 860 868 880 888 884 881 882 882 879 875 875 880 875 864 859 847 824 815 824 830 833 839 837 835 834 823 813 814 817 815 815 811
845 844 843 842 842 842 841 841 841 841 842 843 844 845 845 846 847 847 848 849 848 850 862 869 865 859 857 859 863 864 862 863 864 859 855 861 871 875 873 873 873 873 871 868 867 867 863 862 866 859 851 859 858 846 849 855 851 860 876 881 881 882 882 883 879 877 881 880 872 866 851 830 824 829 830 836 842 837 833 831 820 813 817 819 816 815 812
845 844 843 843 842 842 841 841 842 842 842 844 844 845 845 846 846 847 848 849 847 852 866 872 865 858 858 857 858 863 865 864 862 860 860 866 873 872 869 871 871 869 870 868 865 864 861 861 866 856 848 862 864 850 851 854 846 855 873 878 882 887 888 889 887 881 884 885 877 867 851 835 831 833 834 837 837 833 835 834 824 817 817 817 816 816 812
845 844 843 843 842 842 842 842 842 843 843 844 844 845 845 845 845 846 847 849 848 851 864 872 866 864 866 865 863 865 866 863 861 859 857 859 866 870 871 872 869 868 872 870 866 867 861 859 871 870 855 856 861 856 853 851 849 862 872 866 867 877 883 888 888 883 885 888 883 869 849 836 835 836 835 834 835 836 837 832 825 822 819 816 816 815 812
845 844 844 844 843 843 843 843 843 844 844 844 844 845 844 845 845 845 846 849 851 855 865 870 868 867 868 866 863 863 863 862 862 859 853 854 865 869 862 859 864 868 870 865 864 870 864 856 867 876 861 853 857 857 855 853 852 858 860 853 854 861 861 863 871 877 881 885 878 861 842 835 837 837 834 834 837 838 835 827 823 824 822 819 816 813 811
846 845 845 844 844 844 844 844 844 844 844 844 844 845 844 844 845 846 846 848 848 852 861 867 868 868 868 867 867 866 864 862 861 861 858 860 867 864 852 852 861 864 863 860 859 865 866 861 866 870 863 860 861 856 854 854 851 857 862 856 856 860 854 851 861 869 869 866 857 842 834 836 839 838 837 837 836 834 832 828 825 822 820 818 815 811 808
846 846 846 845 845 845 844 845 845 844 845 845 844 844 844 845 846 846 846 847 850 855 863 867 868 868 867 866 867 867 867 867 866 866 864 864 867 866 860 861 863 863 864 864 859 859 864 865 865 864 860 859 859 858 861 857 848 853 861 855 851 856 856 853 858 861 859 854 847 840 838 839 840 839 838 836 833 832 832 830 827 822 819 818 815 810 806
847 847 847 846 846 846 845 845 846 845 845 845 844 845 845 845 846 846 846 848 855 862 867 868 867 867 868 868 867 867 868 868 867 868 868 864 864 866 866 864 863 864 868 865 859 859 862 863 863 862 858 858 857 857 863 862 856 857 860 855 854 860 862 860 857 856 855 851 843 842 843 840 837 837 836 834 833 832 830 828 825 822 818 816 814 810 806
848 847 847 847 847 847 846 846 846 846 846 846 845 845 846 846 846 847 847 849 854 859 864 867 868 867 867 868 868 868 868 868 867 868 869 867 862 861 863 866 866 865 866 865 865 866 865 865 869 867 861 859 860 857 856 858 862 864 861 856 857 862 863 861 858 858 859 852 842 844 846 842 837 836 834 832 831 829 829 827 824 820 817 814 812 809 805
849 848 848 848 848 848 848 847 848 847 847 847 847 847 847 847 847 847 847 847 849 851 853 859 866 868 868 869 869 868 868 868 868 867 868 869 867 863 863 867 868 865 865 867 867 867 864 863 868 867 861 860 862 861 859 860 864 867 864 861 862 863 861 861 861 862 861 853 845 845 845 841 839 837 834 831 829 825 825 825 822 820 817 813 810 808 804
849 849 849 849 849 849 849 849 849 849 848 848 848 847 847 847 848 848 847 847 848 849 849 855 864 869 868 868 869 869 868 867 868 869 868 868 869 868 867 869 869 867 868 868 867 867 866 865 866 865 863 863 864 864 864 865 866 868 867 865 866 866 863 863 865 864 861 854 848 846 842 837 836 837 836 834 830 826 823 822 820 818 816 812 809 806 802
850 850 850 850 850 850 850 850 850 850 850 849 848 848 848 848 848 848 847 847 847 846 847 853 864 869 869 869 869 868 868 868 867 868 869 868 868 869 869 868 868 867 867 867 867 868 869 868 867 867 867 869 870 871 872 872 871 870 868 867 869 868 865 866 868 868 864 857 851 849 847 841 835 835 835 833 830 827 824 821 819 816 813 810 806 801 797
851 851 851 851 851 851 851 851 851 850 850 850 849 849 849 849 848 848 848 847 847 846 849 858 866 867 866 867 869 868 868 868 868 868 868 869 869 868 868 869 868 868 867 867 866 868 868 866 867 870 872 871 870 871 875 876 873 871 870 869 869 869 867 867 869 868 864 856 851 852 852 846 838 835 834 831 828 826 822 819 817 813 810 807 804 799 794
852 852 852 852 852 852 852 852 851 851 850 850 850 850 849 849 849 848 848 848 847 850 856 862 865 864 864 866 869 869 868 868 868 868 868 868 868 868 868 868 868 868 869 869 868 867 868 869 871 872 872 871 868 868 872 874 871 869 870 871 870 869 868 867 867 866 861 855 852 852 850 845 839 835 833 831 828 825 821 817 813 810 807 804 800 796 792
854 853 853 853 853 852 853 852 851 851 850 849 849 850 849 849 849 849 849 849 848 849 853 854 856 861 867 868 868 868 868 868 868 868 868 868 868 869 868 869 869 869 869 869 869 868 870 872 873 873 873 872 871 869 872 875 872 869 869 870 869 868 867 866 865 863 859 854 852 851 849 845 840 835 832 829 827 824 820 815 811 808 804 800 797 793 789
855 854 854 854 853 853 853 852 851 851 850 849 849 849 849 849 849 849 849 849 848 849 852 853 857 864 868 868 868 868 868 868 868 868 868 868 868 869 869 869 869 869 869 869 870 872 872 871 871 872 873 873 872 872 874 875 873 870 869 869 868 866 865 864 863 861 858 854 850 848 846 843 839 835 830 826 823 821 817 813 809 805 800 797 793 789 785
856 855 855 854 854 854 853 853 852 851 850 849 849 849 849 850 850 849 849 849 849 849 849 850 855 860 861 864 868 869 868 867 868 868 868 868 869 869 870 870 869 870 871 871 871 872 874 873 873 873 873 873 874 876 876 875 875 874 871 868 866 865 864 862 860 859 856 854 851 847 842 838 836 833 828 823 820 818 814 809 805 801 796 792 789 785 781
855 856 855 854 854 854 853 853 853 851 851 851 850 850 851 850 849 849 849 848 849 850 849 849 853 857 860 863 867 868 867 866 867 867 866 868 870 869 869 871 871 871 871 871 872 873 875 875 874 873 874 877 877 875 875 876 877 875 872 869 867 865 863 861 860 858 855 853 852 849 844 837 832 828 824 821 818 815 812 807 803 798 792 788 783 779 775
855 856 855 854 854 854 853 853 853 851 851 851 850 850 851 850 850 850 849 849 850 849 850 852 853 854 858 860 861 865 867 865 864 865 865 867 870 870 870 871 872 871 871 872 874 874 875 876 874 873 876 881 880 877 877 878 876 873 871 870 867 864 861 859 857 856 854 852 850 848 843 838 833 828 823 819 815 811 808 804 800 795 789 784 780 776 772
855 855 854 854 854 853 853 853 852 851 852 851 851 852 851 850 851 850 848 849 850 849 852 858 858 857 858 856 855 860 867 866 865 867 868 868 870 871 871 870 869 870 872 874 874 874 875 876 875 875 879 881 880 879 881 880 876 874 873 870 867 864 861 858 854 852 851 850 847 843 839 835 831 826 820 815 812 808 803 799 795 791 786 780 775 772 768
854 854 853 853 853 852 853 852 851 852 852 851 851 852 851 850 852 851 850 851 850 849 854 861 864 866 866 861 859 863 867 865 866 870 871 869 869 871 871 868 867 872 876 876 874 876 877 877 876 877 880 881 880 881 883 881 877 876 874 871 869 867 864 860 855 850 847 846 844 840 837 833 829 825 819 814 811 807 802 796 791 787 783 779 774 771 767
853 853 852 852 852 852 852 852 852 852 851 851 852 852 851 852 852 851 851 852 852 853 857 860 864 873 876 871 868 869 867 865 867 870 869 869 869 872 872 868 867 873 876 873 873 877 878 878 877 875 878 881 882 882 883 882 879 878 875 872 870 868 864 861 857 851 845 841 837 834 831 826 821 817 813 809 805 803 800 794 789 785 783 780 777 774 770
852 852 852 851 851 852 851 851 852 852 851 852 852 851 851 853 852 852 855 856 854 859 864 863 868 878 881 875 871 870 869 870 871 869 868 871 870 869 870 870 871 873 873 872 877 881 879 879 881 879 878 882 884 882 882 882 880 878 876 873 870 867 864 860 856 851 846 841 836 832 829 823 816 812 808 803 799 797 794 789 785 783 781 779 777 773 768
851 852 851 851 851 852 852 852 853 852 852 852 852 852 854 855 853 854 860 862 861 865 869 869 874 882 881 873 872 874 874 875 873 870 870 872 869 866 868 870 871 872 870 870 877 879 874 876 883 882 878 881 883 881 881 882 880 877 875 872 869 866 863 859 856 853 850 847 843 840 837 834 828 821 814 807 801 795 789 784 782 781 779 777 773 769 764
851 851 851 852 852 852 852 852 852 851 852 853 852 852 854 856 858 862 865 863 864 870 875 875 880 886 885 880 879 879 877 876 876 876 875 874 873 873 872 870 871 872 868 868 876 879 874 874 880 881 880 882 883 881 880 880 878 876 874 870 867 864 861 858 855 853 849 846 843 841 839 838 834 829 821 814 806 797 791 787 784 782 779 775 770 766 760
851 851 851 852 852 852 852 853 852 852 852 852 853 856 859 861 868 873 870 863 865 875 882 882 881 883 886 886 883 880 880 881 883 883 880 877 877 876 871 871 874 872 865 869 881 883 876 874 879 882 884 885 883 881 880 879 876 874 872 868 864 861 858 856 854 852 850 845 841 837 834 833 832 828 821 814 807 802 799 794 789 784 780 775 769 764 758
851 851 851 852 852 852 852 852 851 852 853 852 854 864 871 871 872 874 873 871 876 882 884 884 884 883 885 887 886 883 882 883 884 883 879 876 877 877 875 876 875 866 864 876 886 880 873 877 883 885 885 885 883 881 879 877 874 872 870 866 863 860 857 854 851 850 849 846 840 835 831 829 828 824 818 812 808 805 803 799 793 787 780 774 768 763 759
850 851 850 851 852 852 852 854 855 858 862 863 862 866 873 876 879 881 880 881 887 890 887 887 889 888 885 885 886 885 883 883 884 883 880 878 879 879 876 873 869 867 873 884 884 874 874 884 890 889 886 884 882 881 879 875 873 870 867 866 865 862 859 856 853 849 847 844 839 835 832 828 824 820 816 814 811 806 801 797 793 786 779 772 767 765 762
851 851 850 852 854 854 854 857 859 862 868 876 877 875 876 879 882 884 882 883 889 894 894 895 896 891 887 887 887 885 884 884 883 882 881 882 883 880 872 867 871 877 881 880 876 876 883 889 889 887 886 884 882 881 879 876 873 869 865 864 865 862 859 856 853 848 844 839 836 834 831 825 820 818 816 815 812 806 799 793 787 781 775 771 767 765 764
850 851 851 853 858 860 858 862 868 871 877 884 886 885 884 883 882 884 889 894 897 897 897 900 900 896 891 889 887 885 886 885 881 881 884 884 880 876 873 874 878 881 879 878 881 888 891 890 887 886 886 885 883 883 881 877 874 870 866 863 862 860 858 855 851 847 842 838 834 831 826 820 817 815 813 811 808 803 798 792 785 778 773 770 766 763 760
852 856 855 855 863 870 870 871 876 881 885 889 890 889 889 890 890 893 899 902 901 899 898 900 900 896 892 889 886 887 889 887 882 884 890 885 875 874 880 882 881 883 887 892 897 897 894 892 892 890 889 887 885 882 880 877 874 871 868 866 863 861 858 854 850 846 842 838 833 829 824 820 817 813 809 805 802 799 795 791 786 780 775 772 769 764 759
855 861 859 858 868 877 878 880 885 889 891 893 895 896 898 899 900 901 903 903 902 901 901 900 898 896 894 892 888 887 891 889 884 886 890 885 876 877 882 883 887 897 905 908 907 902 896 895 894 891 890 890 886 881 878 876 872 871 871 868 865 862 858 854 850 846 841 836 832 828 824 820 815 810 806 802 799 797 794 790 786 782 778 774 770 766 760
858 862 862 867 876 882 883 887 893 896 897 899 902 903 904 903 901 901 903 904 903 901 899 898 895 892 892 893 891 888 889 888 885 886 890 888 885 887 889 890 897 907 910 909 908 905 899 896 895 893 892 890 887 882 879 875 872 872 872 869 865 862 857 853 849 845 840 836 832 827 822 818 812 808 804 800 797 796 794 789 785 783 780 774 769 764 759
862 865 871 880 887 891 893 897 896 894 896 901 904 905 904 902 901 902 903 903 902 901 900 900 896 890 889 892 891 887 888 890 887 887 893 897 898 902 905 905 906 908 908 907 907 905 901 898 897 894 891 889 887 883 880 877 875 875 873 870 867 863 858 853 849 845 841 837 832 827 822 817 812 807 805 801 796 794 793 789 786 782 779 775 769 763 757
868 874 883 889 889 890 896 899 893 890 894 900 903 904 904 903 902 903 903 903 903 901 898 898 897 893 891 890 885 882 890 899 898 897 902 907 909 912 915 915 913 912 910 909 907 906 903 901 898 892 889 887 886 883 881 880 878 876 874 871 867 863 858 854 850 846 841 837 832 827 822 819 815 812 808 804 798 793 791 789 787 783 778 775 771 764 757
876 884 895 899 895 894 897 896 892 893 898 902 904 907 908 906 904 904 904 905 903 897 893 896 897 892 888 889 889 889 895 904 906 907 912 916 916 917 920 920 918 914 912 909 909 908 905 902 898 893 889 886 884 882 882 881 880 878 875 871 867 862 858 854 850 846 841 837 832 828 825 822 819 816 812 806 799 792 786 783 783 782 778 773 769 765 759
884 889 898 903 903 903 902 899 898 902 906 907 908 910 909 907 907 907 906 903 899 895 895 899 898 892 891 898 904 904 904 908 912 916 918 919 919 921 923 921 917 914 911 910 910 908 905 902 899 896 893 889 886 883 882 880 879 877 874 870 865 862 858 853 848 844 840 836 832 830 827 824 820 816 811 804 798 792 786 781 778 777 774 771 768 765 761